"2009-05-02 00:00:30",849922,1.751,103.7,3.87,0.529,3.315,101.4806,3.077,4.09,93.4,0,109.8,13.54,3.84,65.7
"2009-05-02 00:01:00",849923,3.064,103.5,7.792,1.247,4.83,101.481,3.078,4.128,93.4,0,109.8,13.54,3.84,65.5
"2009-05-02 00:01:30",849924,3.421,110,8.26,1.163,6.132,101.4829,3.083,4.304,93.6,0,109.8,13.54,3.85,72.0
"2009-05-02 00:02:00",849925,3.314,116.8,11.93,1.097,6.825,101.4838,3.085,4.33,93.6,0,109.8,13.54,3.85,78.8
"2009-05-02 00:02:30",849926,3.385,110.8,9.28,1.225,6.505,101.4866,3.093,4.233,93.5,0,109.8,13.54,3.86,72.8
"2009-05-02 00:03:00",849927,2.596,110.5,5.448,1.005,4.486,101.4872,3.094,4.251,93.5,0,109.8,13.54,3.86,72.5
"2009-05-02 00:03:30",849928,2.868,111.2,6.097,1.061,4.741,101.4883,3.097,4.184,93.4,0,109.8,13.53,3.86,73.2
"2009-05-02 00:04:00",849929,2.006,100.5,3.072,0.107,3.176,101.4895,3.1,4.102,93.3,0,109.8,13.57,3.86,62.5
"2009-05-02 00:04:30",849930,2.667,112.5,10.51,1.164,5.189,101.49,3.101,4.264,93.4,0,109.8,13.54,3.86,74.5
"2009-05-02 00:05:00",849931,3.848,127.1,8.47,1.167,6.908,101.4889,3.098,4.327,93.5,0,109.8,13.54,3.86,89.1
"2009-05-02 00:05:30",849932,3.686,119.3,6.209,1.301,7.091,101.49,3.101,4.324,93.5,0,109.8,13.54,3.86,81.3
"2009-05-02 00:06:00",849933,3.283,118.8,7.481,1.251,5.374,101.4903,3.102,4.227,93.4,0,109.8,13.53,3.86,80.8
"2009-05-02 00:06:30",849934,3.393,115.4,4.144,1.124,5.267,101.4878,3.096,4.187,93.3,0,109.8,13.54,3.86,77.4
"2009-05-02 00:07:00",849935,3.566,117.1,7.016,1.278,5.221,101.4895,3.1,4.246,93.4,0,109.8,13.54,3.86,79.1
"2009-05-02 00:07:30",849936,2.824,117.2,3.484,0.821,4.099,101.4889,3.099,4.24,93.4,0,109.8,13.54,3.86,79.2
"2009-05-02 00:08:00",849937,4.69,122.1,6.033,1.16,7.274,101.4887,3.098,4.259,93.3,0,109.8,13.54,3.86,84.1
"2009-05-02 00:08:30",849938,5.168,120.9,6.003,0.547,8.47,101.4858,3.091,4.382,93.5,0,109.8,13.54,3.85,82.9
"2009-05-02 00:09:00",849939,4.315,106,7.212,1.188,6.697,101.4862,3.091,4.328,93.4,0,109.8,13.54,3.85,68.0
"2009-05-02 00:09:30",849940,3.24,104.5,9.72,0.966,5.448,101.4853,3.089,4.336,93.4,0,109.8,13.54,3.85,66.5
"2009-05-02 00:10:00",849941,2.656,116.6,6.305,0.879,3.663,101.4841,3.086,4.194,93.2,0,109.8,13.54,3.85,78.6
"2009-05-02 00:10:30",849942,2.963,118.2,8.4,0.872,4.224,101.485,3.088,4.142,93.2,0,109.8,13.54,3.85,80.2
"2009-05-02 00:11:00",849943,3.746,108.6,6.275,1.24,6.064,101.4856,3.09,4.247,93.2,0,109.8,13.54,3.85,70.6
"2009-05-02 00:11:30",849944,4.254,106.2,7.911,1.152,7.578,101.4856,3.09,4.328,93.3,0,109.8,13.54,3.85,68.2
"2009-05-02 00:12:00",849945,4.432,112.3,5.247,1.123,7.414,101.4847,3.088,4.297,93.3,0,109.8,13.54,3.85,74.3
"2009-05-02 00:12:30",849946,3.023,110.6,5.752,1.028,4.911,101.485,3.088,4.324,93.3,0,109.8,13.54,3.85,72.6
"2009-05-02 00:13:00",849947,3.355,106.2,8.54,1.275,5.197,101.485,3.088,4.235,93.2,0,109.8,13.54,3.85,68.2
"2009-05-02 00:13:30",849948,3.146,110.5,4.384,0.761,3.705,101.4853,3.089,4.17,93.2,0,109.8,13.54,3.85,72.5
"2009-05-02 00:14:00",849949,2.941,102.9,6.38,0.826,4.497,101.4859,3.091,4.237,93.2,0,109.8,13.54,3.85,64.9
"2009-05-02 00:14:30",849950,4.496,113.2,9.11,0.991,7.402,101.4856,3.09,4.288,93.3,0,109.8,13.54,3.85,75.2
"2009-05-02 00:15:00",849951,5.259,100.5,6.585,1.207,7.62,101.485,3.088,4.332,93.4,0,109.8,13.54,3.85,62.5
"2009-05-02 00:15:30",849952,4.238,92.6,7.583,1.209,6.719,101.485,3.088,4.342,93.4,0,109.8,13.54,3.85,54.6
"2009-05-02 00:16:00",849953,2.819,89,5.925,0.91,4.716,101.487,3.094,4.259,93.3,0,109.8,13.54,3.86,51.0
"2009-05-02 00:16:30",849954,3.108,85.5,6.073,1.025,4.004,101.4884,3.097,4.173,93.2,0,109.8,13.54,3.86,47.5
"2009-05-02 00:17:00",849955,3.537,95.8,7.134,1.164,4.628,101.4884,3.097,4.119,93.2,0,109.8,13.54,3.86,57.8
"2009-05-02 00:17:30",849956,3.689,107.5,10.53,1.231,5.676,101.4876,3.095,4.243,93.3,0,109.8,13.54,3.86,69.5
"2009-05-02 00:18:00",849957,4.325,109.2,9.56,1.094,7.473,101.487,3.094,4.332,93.4,0,109.8,13.54,3.86,71.2
"2009-05-02 00:18:30",849958,3.9,108.9,6.458,1.228,7.25,101.4876,3.095,4.357,93.4,0,109.8,13.54,3.86,70.9
"2009-05-02 00:19:00",849959,3.368,102.3,7.311,1.329,5.952,101.4884,3.097,4.207,93.3,0,109.8,13.54,3.86,64.3
"2009-05-02 00:19:30",849960,2.703,98,6.018,0.925,4.125,101.4896,3.1,4.223,93.3,0,109.8,13.54,3.86,60.0
"2009-05-02 00:20:00",849961,3.613,99.8,8.39,1.186,5.01,101.4862,3.092,4.105,93.1,0,109.8,13.54,3.85,61.8
"2009-05-02 00:20:30",849962,2.364,108.7,7.03,0.945,4.179,101.4879,3.096,4.232,93.3,0,109.8,13.54,3.86,70.7
"2009-05-02 00:21:00",849963,4.483,114.1,7.377,1.071,7.276,101.4862,3.092,4.263,93.3,0,109.8,13.54,3.85,76.1
"2009-05-02 00:21:30",849964,4.664,100.9,10.05,1.097,7.718,101.4845,3.087,4.348,93.4,0,109.8,13.54,3.85,62.9
"2009-05-02 00:22:00",849965,4.488,98.3,7.132,1.28,6.931,101.4848,3.088,4.35,93.4,0,109.8,13.54,3.85,60.3
"2009-05-02 00:22:30",849966,3.806,100.8,10.5,1.31,5.306,101.4843,3.087,4.152,93.2,0,109.8,13.54,3.85,62.8
"2009-05-02 00:23:00",849967,3.336,109.7,8.35,1.179,5.062,101.4837,3.085,4.229,93.3,0,109.8,13.54,3.85,71.7
"2009-05-02 00:23:30",849968,3.441,108.1,8.36,1.202,5.304,101.484,3.086,4.224,93.3,0,109.8,13.54,3.85,70.1
"2009-05-02 00:24:00",849969,2.597,103.8,6.676,0.953,5.243,101.4837,3.085,4.266,93.3,0,109.8,13.54,3.85,65.8
"2009-05-02 00:24:30",849970,4.002,118.9,5.359,0.919,7.73,101.4829,3.083,4.293,93.3,0,109.8,13.54,3.85,80.9
"2009-05-02 00:25:00",849971,3.145,125.6,7.999,1.245,6.501,101.4795,3.074,4.331,93.4,0,109.8,13.54,3.84,87.6
"2009-05-02 00:25:30",849972,2.815,116.6,11.41,1.307,5.285,101.4744,3.061,4.118,93.1,0,109.8,13.54,3.82,78.6
"2009-05-02 00:26:00",849973,2.964,111.7,11.15,1.226,4.838,101.471,3.053,4.2,93.2,0,109.8,13.55,3.82,73.7
"2009-05-02 00:26:30",849974,2.169,108.4,8.4,1.088,4.141,101.4696,3.049,4.174,93.2,0,109.8,13.55,3.81,70.4
"2009-05-02 00:27:00",849975,2.045,109.8,7.373,1.054,4.404,101.4679,3.045,4.194,93.2,0,109.8,13.55,3.81,71.8
"2009-05-02 00:27:30",849976,3.619,122.8,6.901,1.194,6.686,101.467,3.043,4.25,93.3,0,109.8,13.55,3.81,84.8
"2009-05-02 00:28:00",849977,3.827,118.9,6.579,1.102,6.895,101.4653,3.038,4.261,93.3,0,109.8,13.55,3.80,80.9
"2009-05-02 00:28:30",849978,2.717,111,6.391,1.127,4.963,101.4633,3.033,4.25,93.3,0,109.8,13.55,3.80,73.0
"2009-05-02 00:29:00",849979,2.611,107.4,7.938,1.024,4.128,101.4608,3.027,4.18,93.2,0,109.8,13.55,3.79,69.4
"2009-05-02 00:29:30",849980,3.162,100.3,9.87,1.152,4.009,101.46,3.025,4.124,93.2,0,109.8,13.55,3.79,62.3
"2009-05-02 00:30:00",849981,4.377,103.7,5.608,1.376,6.137,101.4591,3.022,4.221,93.3,0,109.8,13.55,3.78,65.7
"2009-05-02 00:30:30",849982,3.6,95.9,7.06,1.172,6.402,101.4591,3.022,4.323,93.4,0,109.7,13.55,3.78,57.9
"2009-05-02 00:31:00",849983,4.664,100,8.77,1.196,7.494,101.4591,3.022,4.324,93.4,0,109.8,13.55,3.78,62.0
"2009-05-02 00:31:30",849984,4.679,101.4,5.704,1.383,6.389,101.4591,3.022,4.297,93.4,0,109.8,13.55,3.78,63.4
"2009-05-02 00:32:00",849985,4.91,99.1,6.528,1.212,5.512,101.4577,3.019,4.132,93.2,0,109.8,13.55,3.78,61.1
"2009-05-02 00:32:30",849986,3.9,98.9,4.456,0.869,3.867,101.4529,3.007,4.172,93.2,0,109.7,13.55,3.77,60.9
"2009-05-02 00:33:00",849987,5.161,105.6,5.745,1.049,7.151,101.4506,3.001,4.195,93.3,0,109.8,13.55,3.76,67.6
"2009-05-02 00:33:30",849988,4.979,106,6.947,1.204,6.663,101.4503,3,4.191,93.2,0,109.8,13.55,3.76,68.0
"2009-05-02 00:34:00",849989,5.099,109.4,4.724,0.937,7.995,101.4469,2.991,4.316,93.4,0,109.8,13.55,3.75,71.4
"2009-05-02 00:34:30",849990,3.991,100.5,10.42,1.094,5.807,101.4387,2.97,4.168,93.2,0,109.8,13.54,3.73,62.5
"2009-05-02 00:35:00",849991,3.181,95.2,6.286,0.719,4.157,101.4337,2.957,4.175,93.3,0,109.8,13.54,3.72,57.2
"2009-05-02 00:35:30",849992,2.898,85.7,4.204,0.224,3.324,101.4325,2.955,4.083,93.2,0,109.7,13.57,3.72,47.7
"2009-05-02 00:36:00",849993,4.41,92,6.246,1.178,6.505,101.4274,2.942,4.159,93.3,0,109.8,13.54,3.70,54.0
"2009-05-02 00:36:30",849994,4.316,99.5,6.723,1.207,6.828,101.4252,2.936,4.228,93.4,0,109.7,13.54,3.70,61.5
"2009-05-02 00:37:00",849995,4.223,103.3,7.132,1.218,6.652,101.4252,2.936,4.242,93.4,0,109.7,13.54,3.70,65.3
"2009-05-02 00:37:30",849996,3.891,103,7.726,1.081,6.305,101.4252,2.936,4.237,93.4,0,109.7,13.54,3.70,65.0
"2009-05-02 00:38:00",849997,3.942,102.9,4.619,1.543,5.459,101.4223,2.929,4.04,93.2,0,109.7,13.54,3.69,64.9
"2009-05-02 00:38:30",849998,2.309,100.5,6.552,0.627,3.159,101.4173,2.916,4.02,93.2,0,109.7,13.54,3.68,62.5
"2009-05-02 00:39:00",849999,3.411,114.1,9.13,1.295,4.984,101.4167,2.914,4.112,93.3,0,109.7,13.54,3.68,76.1
"2009-05-02 00:39:30",850000,3.777,114.8,7.144,1.228,6.26,101.4161,2.913,4.232,93.5,0,109.7,13.55,3.67,76.8
"2009-05-02 00:40:00",850001,4.396,125.8,5.06,1.143,6.981,101.4093,2.895,4.217,93.5,0,109.7,13.55,3.66,87.8
"2009-05-02 00:40:30",850002,4.109,122.3,6.374,1.248,6.464,101.4017,2.876,4.16,93.4,0,109.7,13.55,3.64,84.3
"2009-05-02 00:41:00",850003,3.443,118.2,5.196,1.16,4.781,101.398,2.866,3.963,93.2,0,109.7,13.55,3.63,80.2
"2009-05-02 00:41:30",850004,3.249,121.9,5.36,1.19,5.282,101.3932,2.854,4.128,93.4,0,109.7,13.55,3.62,83.9
"2009-05-02 00:42:00",850005,3.481,125.8,4.778,1.313,5.393,101.3912,2.849,4.028,93.3,0,109.7,13.55,3.61,87.8
"2009-05-02 00:42:30",850006,3.527,132.5,6.983,1.252,6.157,101.3912,2.849,4.192,93.5,0,109.7,13.55,3.61,94.5
"2009-05-02 00:43:00",850007,4.322,131.4,5.19,1.086,7.397,101.3912,2.849,4.166,93.5,0,109.7,13.55,3.61,93.4
"2009-05-02 00:43:30",850008,3.558,125.8,6.434,1.251,5.843,101.391,2.848,4.111,93.5,0,109.7,13.55,3.61,87.8
"2009-05-02 00:44:00",850009,4.05,130.7,10.5,1.234,5.779,101.385,2.833,4.064,93.4,0,109.7,13.55,3.60,92.7
"2009-05-02 00:44:30",850010,3.53,129.9,6.769,1.045,4.685,101.383,2.828,4.067,93.5,0,109.7,13.55,3.59,91.9
"2009-05-02 00:45:00",850011,4.488,128,6.441,1.245,5.741,101.3833,2.829,4.029,93.4,0,109.7,13.55,3.59,90.0
"2009-05-02 00:45:30",850012,5.082,129,5.301,1.079,7.291,101.3828,2.828,4.149,93.6,0,109.7,13.55,3.59,91.0
"2009-05-02 00:46:00",850013,4.559,121.4,7.486,1.109,7.343,101.3822,2.826,4.134,93.6,0,109.7,13.55,3.59,83.4
"2009-05-02 00:46:30",850014,4.671,118.9,6.657,1.13,6.522,101.3808,2.822,4.093,93.6,0,109.7,13.55,3.58,80.9
"2009-05-02 00:47:00",850015,3.919,121,7.568,1.228,5.822,101.3743,2.806,3.978,93.5,0,109.7,13.55,3.57,83.0
"2009-05-02 00:47:30",850016,3.32,121.4,7.753,1.229,5.416,101.3701,2.795,4.036,93.5,0,109.7,13.55,3.56,83.4
"2009-05-02 00:48:00",850017,3.463,120.7,4.809,1.267,5.124,101.3687,2.792,3.969,93.5,0,109.7,13.55,3.55,82.7
"2009-05-02 00:48:30",850018,3.538,128,7.419,1.332,5.925,101.3681,2.79,4.098,93.7,0,109.7,13.55,3.55,90.0
"2009-05-02 00:49:00",850019,4.49,132.4,5.39,1.104,7.103,101.3684,2.791,4.11,93.7,0,109.7,13.55,3.55,94.4
"2009-05-02 00:49:30",850020,4.544,135.4,7.065,1.148,7.28,101.3661,2.785,4.071,93.7,0,109.7,13.55,3.55,97.4
"2009-05-02 00:50:00",850021,4.136,133.2,6.213,1.163,6.135,101.3627,2.776,3.997,93.6,0,109.7,13.55,3.54,95.2
"2009-05-02 00:50:30",850022,3.425,131.2,7.176,0.944,4.765,101.3613,2.773,4.018,93.7,0,109.7,13.55,3.53,93.2
"2009-05-02 00:51:00",850023,4.028,134.1,6.771,1.275,5.596,101.3619,2.774,3.973,93.6,0,109.7,13.55,3.54,96.1
"2009-05-02 00:51:30",850024,3.666,140.9,5.063,1.237,5.891,101.363,2.777,4.035,93.8,0,109.7,13.55,3.54,102.9
"2009-05-02 00:52:00",850025,4.881,138.9,6.188,1.119,7.159,101.3625,2.776,4.081,93.8,0,109.7,13.54,3.54,100.9
"2009-05-02 00:52:30",850026,4.621,138.5,6.495,1.152,6.632,101.3608,2.771,4.024,93.8,0,109.7,13.54,3.53,100.5
"2009-05-02 00:53:00",850027,2.902,129.6,2.868,0.101,3.771,101.3586,2.766,3.989,93.8,0,109.7,13.58,3.53,91.6
"2009-05-02 00:53:30",850028,4.822,140.7,4.269,1.092,6.764,101.3577,2.764,3.948,93.7,0,109.7,13.54,3.53,102.7
"2009-05-02 00:54:00",850029,4.17,144.8,5.463,1.178,7.39,101.3571,2.762,4.062,93.9,0,109.7,13.55,3.52,106.8
"2009-05-02 00:54:30",850030,3.763,138.5,9.86,1.164,5.629,101.3557,2.758,3.829,93.7,0,109.7,13.54,3.52,100.5
"2009-05-02 00:55:00",850031,3.933,149.7,6.137,1.171,6.769,101.3563,2.76,4.049,93.9,0,109.7,13.54,3.52,111.7
"2009-05-02 00:55:30",850032,4.126,145.9,6.486,1.141,6.234,101.3568,2.761,4.012,93.9,0,109.7,13.55,3.52,107.9
"2009-05-02 00:56:00",850033,3.275,133.4,2.261,0.098,3.48,101.3574,2.763,3.882,93.8,0,109.7,13.58,3.52,95.4
"2009-05-02 00:56:30",850034,4.796,140.6,6.392,1.197,7.006,101.3583,2.765,4.041,94,0,109.7,13.55,3.53,102.6
"2009-05-02 00:57:00",850035,4.683,140.6,7.073,1.205,7.089,101.3566,2.761,4.032,94,0,109.7,13.55,3.52,102.6
"2009-05-02 00:57:30",850036,4.963,138.2,6.404,1.159,7.546,101.3577,2.764,4.103,94.1,0,109.7,13.55,3.53,100.2
"2009-05-02 00:58:00",850037,5.382,136.9,8.8,1.169,7.28,101.3603,2.77,4.054,94.1,0,109.7,13.55,3.53,98.9
"2009-05-02 00:58:30",850038,4.769,139.9,6.264,1.096,6.3,101.358,2.764,3.968,94,0,109.7,13.55,3.53,101.9
"2009-05-02 00:59:00",850039,3.309,133.6,5.027,0.356,3.558,101.3591,2.767,3.803,93.9,0,109.7,13.59,3.53,95.6
"2009-05-02 00:59:30",850040,4.367,142.8,8.5,1.182,5.867,101.358,2.764,3.981,94.1,0,109.7,13.55,3.53,104.8
"2009-05-02 01:00:00",850041,4.405,143.6,7.66,1.152,6.942,101.3614,2.773,4.04,94.2,0,109.7,13.55,3.53,105.6
"2009-05-02 01:00:30",850042,4.995,151.4,6.311,1.058,7.444,101.3614,2.773,4.035,94.1,0,109.7,13.55,3.53,113.4
"2009-05-02 01:01:00",850043,5.045,142.4,8.43,1.193,6.817,101.3623,2.775,4.055,94.2,0,109.7,13.55,3.54,104.4
"2009-05-02 01:01:30",850044,4.604,144.6,6.908,1.283,6.291,101.3617,2.774,4.003,94.2,0,109.7,13.55,3.54,106.6
"2009-05-02 01:02:00",850045,2.531,130.5,5.946,0.15,3.486,101.3586,2.766,3.858,94.1,0,109.7,13.59,3.53,92.5
"2009-05-02 01:02:30",850046,4.27,138.4,5.253,1.138,7.146,101.3603,2.77,4.041,94.3,0,109.7,13.55,3.53,100.4
"2009-05-02 01:03:00",850047,4.436,152.3,4.919,1.156,7.225,101.3603,2.77,4.05,94.3,0,109.7,13.55,3.53,114.3
"2009-05-02 01:03:30",850048,4.086,150.7,6.281,1.311,6.101,101.356,2.759,3.975,94.2,0,109.7,13.55,3.52,112.7
"2009-05-02 01:04:00",850049,4.392,146.2,6.133,1.214,6.288,101.3595,2.768,4.007,94.3,0,109.7,13.55,3.53,108.2
"2009-05-02 01:04:30",850050,4.589,145.6,6.096,1.149,6.977,101.3586,2.766,4.033,94.4,0,109.7,13.55,3.53,107.6
"2009-05-02 01:05:00",850051,2.909,138.4,1.294,0.498,3.484,101.3538,2.754,3.817,94.2,0,109.7,13.55,3.52,100.4
"2009-05-02 01:05:30",850052,4.116,147,6.385,1.134,6.234,101.3558,2.759,4.014,94.4,0,109.7,13.55,3.52,109.0
"2009-05-02 01:06:00",850053,4.263,149.2,6.514,1.136,6.881,101.3558,2.759,4.038,94.4,0,109.7,13.55,3.52,111.2
"2009-05-02 01:06:30",850054,3.221,146.2,6.242,1.109,5.172,101.3558,2.759,3.982,94.4,0,109.7,13.55,3.52,108.2
"2009-05-02 01:07:00",850055,4.004,149.8,6.378,1.245,6.321,101.3575,2.763,4.046,94.5,0,109.7,13.55,3.52,111.8
"2009-05-02 01:07:30",850056,4.238,149.4,6.409,1.197,6.563,101.3573,2.762,4.012,94.5,0,109.7,13.55,3.52,111.4
"2009-05-02 01:08:00",850057,2.553,148,7.74,0.495,4.037,101.3558,2.759,3.868,94.3,0,109.7,13.55,3.52,110.0
"2009-05-02 01:08:30",850058,3.417,149.2,9.08,1.054,4.926,101.3561,2.76,3.858,94.3,0,109.7,13.55,3.52,111.2
"2009-05-02 01:09:00",850059,4.632,165.5,6.698,1.17,6.903,101.355,2.757,4.06,94.5,0,109.7,13.55,3.52,127.5
"2009-05-02 01:09:30",850060,3.346,150.8,7.297,0.716,4.381,101.3539,2.754,3.92,94.4,0,109.7,13.55,3.52,112.8
"2009-05-02 01:10:00",850061,4.83,158.7,6.396,1.06,7.286,101.3539,2.754,4.033,94.5,0,109.7,13.55,3.52,120.7
"2009-05-02 01:10:30",850062,4.68,160.2,7.347,1.082,7.335,101.3533,2.752,4.036,94.5,0,109.7,13.55,3.51,122.2
"2009-05-02 01:11:00",850063,3.401,161,6.243,1.122,4.92,101.3525,2.75,3.869,94.4,0,109.7,13.55,3.51,123.0
"2009-05-02 01:11:30",850064,3.581,161.9,6.661,1.185,5.216,101.3505,2.745,3.918,94.5,0,109.7,13.55,3.51,123.9
"2009-05-02 01:12:00",850065,3.582,159.2,7.224,1.171,5.289,101.3505,2.745,3.945,94.5,0,109.7,13.56,3.51,121.2
"2009-05-02 01:12:30",850066,4.006,157,5.175,1.18,6.511,101.3513,2.747,3.952,94.5,0,109.7,13.56,3.51,119.0
"2009-05-02 01:13:00",850067,4.221,159,5.891,1.202,7.218,101.3519,2.749,4.059,94.7,0,109.7,13.56,3.51,121.0
"2009-05-02 01:13:30",850068,3.816,159.8,6.192,1.237,6.636,101.3496,2.743,3.974,94.6,0,109.7,13.56,3.50,121.8
"2009-05-02 01:14:00",850069,3.386,159.2,4.595,1.282,5.563,101.3505,2.745,3.869,94.5,0,109.7,13.56,3.51,121.2
"2009-05-02 01:14:30",850070,3.088,161.2,6.485,1.074,5.026,101.3525,2.75,3.914,94.6,0,109.7,13.56,3.51,123.2
"2009-05-02 01:15:00",850071,2.722,159.5,4.873,0.954,4.427,101.3514,2.747,3.908,94.6,0,109.7,13.56,3.51,121.5
"2009-05-02 01:15:30",850072,4.036,165.5,5.558,1.145,6.99,101.3516,2.748,3.925,94.6,0,109.7,13.56,3.51,127.5
"2009-05-02 01:16:00",850073,3.013,159.1,5.28,1.216,5.764,101.3528,2.751,3.952,94.6,0,109.7,13.56,3.51,121.1
"2009-05-02 01:16:30",850074,3.631,153.4,6.395,1.276,6.689,101.3519,2.749,4.026,94.7,0,109.7,13.56,3.51,115.4
"2009-05-02 01:17:00",850075,4.105,142.4,8.08,1.159,6.394,101.3528,2.751,3.911,94.6,0,109.7,13.56,3.51,104.4
"2009-05-02 01:17:30",850076,2.557,136.4,12.58,1.046,4.779,101.3545,2.755,3.896,94.6,0,109.7,13.56,3.52,98.4
"2009-05-02 01:18:00",850077,2.395,156.4,5.187,0.849,4.073,101.3545,2.755,3.883,94.6,0,109.7,13.56,3.52,118.4
"2009-05-02 01:18:30",850078,3.016,154,8.01,1.186,4.813,101.3559,2.759,3.869,94.6,0,109.7,13.56,3.52,116.0
"2009-05-02 01:19:00",850079,3.305,151.2,6.103,1.256,5.706,101.3574,2.763,3.937,94.7,0,109.7,13.56,3.52,113.2
"2009-05-02 01:19:30",850080,3.632,152.6,5.654,1.213,6.849,101.3579,2.764,4.031,94.8,0,109.7,13.56,3.53,114.6
"2009-05-02 01:20:00",850081,3.842,156.8,5.511,1.132,7.393,101.3585,2.766,4.023,94.8,0,109.8,13.56,3.53,118.8
"2009-05-02 01:20:30",850082,3.491,160.5,7.567,1.301,6.039,101.3608,2.771,3.98,94.8,0,109.7,13.56,3.53,122.5
"2009-05-02 01:21:00",850083,3.005,159.7,6.009,1.142,4.684,101.3613,2.773,3.959,94.8,0,109.7,13.56,3.53,121.7
"2009-05-02 01:21:30",850084,3.335,157,7.795,1.144,4.391,101.365,2.782,3.833,94.7,0,109.7,13.56,3.54,119.0
"2009-05-02 01:22:00",850085,3.196,159.2,7.342,1.048,4.395,101.3645,2.781,3.856,94.7,0,109.7,13.56,3.54,121.2
"2009-05-02 01:22:30",850086,4.314,161,9.21,1.18,6.628,101.365,2.782,3.976,94.8,0,109.7,13.56,3.54,123.0
"2009-05-02 01:23:00",850087,3.906,171.8,7.39,1.142,7.271,101.3644,2.781,4.046,94.9,0,109.7,13.56,3.54,133.8
"2009-05-02 01:23:30",850088,3.439,156.7,7.016,1.181,4.792,101.3656,2.784,3.859,94.7,0,109.7,13.56,3.55,118.7
"2009-05-02 01:24:00",850089,3.676,157.7,5.932,1.211,5.656,101.3645,2.781,4.034,94.9,0,109.7,13.56,3.54,119.7
"2009-05-02 01:24:30",850090,3.438,159.7,6.424,1.145,5.358,101.365,2.782,3.952,94.8,0,109.7,13.56,3.54,121.7
"2009-05-02 01:25:00",850091,2.49,154.3,1.799,0.072,3.128,101.3667,2.787,3.821,94.7,0,109.7,13.59,3.55,116.3
"2009-05-02 01:25:30",850092,4.143,163.7,6.429,1.203,6.365,101.3647,2.782,3.999,94.9,0,109.7,13.56,3.54,125.7
"2009-05-02 01:26:00",850093,3.792,162.7,6.599,1.162,6.523,101.3622,2.775,4.037,94.9,0,109.7,13.56,3.54,124.7
"2009-05-02 01:26:30",850094,3.785,165.9,6.74,1.253,6.285,101.3645,2.781,3.942,94.8,0,109.7,13.56,3.54,127.9
"2009-05-02 01:27:00",850095,3.593,164.6,6.362,1.217,5.871,101.3613,2.773,4.031,94.9,0,109.7,13.56,3.53,126.6
"2009-05-02 01:27:30",850096,2.899,162.4,6.651,1.069,4.835,101.3647,2.782,3.986,94.9,0,109.7,13.56,3.54,124.4
"2009-05-02 01:28:00",850097,3.129,165.7,7.157,1.151,5.141,101.3667,2.787,3.885,94.8,0,109.7,13.56,3.55,127.7
"2009-05-02 01:28:30",850098,2.638,159.3,3.982,0.694,3.719,101.3685,2.791,3.901,94.9,0,109.7,13.56,3.55,121.3
"2009-05-02 01:29:00",850099,4.256,166.8,6.632,1.177,6.579,101.3645,2.781,4.019,95,0,109.7,13.56,3.54,128.8
"2009-05-02 01:29:30",850100,3.747,166.9,5.844,1.245,6.09,101.3656,2.784,4.05,95,0,109.7,13.56,3.55,128.9
"2009-05-02 01:30:00",850101,3.858,167.7,6.454,1.246,7.287,101.3653,2.783,4.127,95.1,0,109.7,13.56,3.54,129.7
"2009-05-02 01:30:30",850102,4.191,170.4,6.812,1.114,6.407,101.3667,2.787,3.976,95,0,109.7,13.56,3.55,132.4
"2009-05-02 01:31:00",850103,3.091,161.6,1.659,0.124,3.122,101.3699,2.795,3.873,94.9,0,109.7,13.59,3.56,123.6
"2009-05-02 01:31:30",850104,3.169,160.5,3.645,0.792,3.453,101.3705,2.796,3.809,94.8,0,109.8,13.56,3.56,122.5
"2009-05-02 01:32:00",850105,3.702,174.5,11.35,1.173,6.228,101.3633,2.778,4.062,95.1,0,109.7,13.56,3.54,136.5
"2009-05-02 01:32:30",850106,3.998,178.5,5.981,1.164,6.384,101.3631,2.777,4.027,95,0,109.7,13.56,3.54,140.5
"2009-05-02 01:33:00",850107,4.604,180.9,8.61,1.127,7.642,101.3614,2.773,4.037,95.1,0,109.7,13.56,3.53,142.9
"2009-05-02 01:33:30",850108,4.145,175.2,5.991,1.154,6.995,101.3602,2.77,4.059,95.1,0,109.7,13.56,3.53,137.2
"2009-05-02 01:34:00",850109,3.295,171,6.287,1.203,4.811,101.3642,2.78,3.877,94.9,0,109.7,13.56,3.54,133.0
"2009-05-02 01:34:30",850110,2.973,168.8,7.035,1.005,4.32,101.3622,2.775,3.934,95,0,109.7,13.56,3.54,130.8
"2009-05-02 01:35:00",850111,2.922,169.8,6.12,1.092,4.127,101.3614,2.773,3.884,95,0,109.7,13.56,3.53,131.8
"2009-05-02 01:35:30",850112,3.701,170.1,6.818,1.185,6.135,101.3603,2.77,3.929,95,0,109.7,13.56,3.53,132.1
"2009-05-02 01:36:00",850113,2.946,169.5,9.85,1.244,5.783,101.3577,2.764,3.988,95.1,0,109.7,13.56,3.53,131.5
"2009-05-02 01:36:30",850114,3.959,175.6,7.494,1.142,7.523,101.3577,2.764,4.052,95.2,0,109.7,13.56,3.53,137.6
"2009-05-02 01:37:00",850115,3.934,179.7,7.499,1.206,6.923,101.3563,2.76,4.026,95.2,0,109.7,13.56,3.52,141.7
"2009-05-02 01:37:30",850116,2.416,180,2.33,0.11,3.264,101.3589,2.767,3.795,94.9,0,109.7,13.56,3.53,142.0
"2009-05-02 01:38:00",850117,3.355,184.3,6.898,1.118,5.126,101.3583,2.765,3.936,95.1,0,109.7,13.56,3.53,146.3
"2009-05-02 01:38:30",850118,2.235,174.4,6.183,0.485,3.459,101.3597,2.769,3.883,95,0,109.7,13.56,3.53,136.4
"2009-05-02 01:39:00",850119,3.267,184.1,6.47,1.262,5.005,101.3609,2.772,3.798,95,0,109.7,13.57,3.53,146.1
"2009-05-02 01:39:30",850120,3.476,191.7,6.679,1.215,6.613,101.3577,2.764,4.037,95.2,0,109.7,13.56,3.53,153.7
"2009-05-02 01:40:00",850121,3.965,197.9,5.888,1.111,7.585,101.3591,2.767,4.018,95.2,0,109.7,13.56,3.53,159.9
"2009-05-02 01:40:30",850122,3.7,192.7,5.752,1.262,6.56,101.3583,2.765,4.034,95.2,0,109.7,13.56,3.53,154.7
"2009-05-02 01:41:00",850123,3.756,186.1,8.47,1.269,5.213,101.3634,2.778,3.925,95.1,0,109.7,13.56,3.54,148.1
"2009-05-02 01:41:30",850124,2.862,181.7,5.653,0.916,4.157,101.3625,2.776,3.948,95.2,0,109.7,13.56,3.54,143.7
"2009-05-02 01:42:00",850125,3.398,185.6,5.85,1.189,4.389,101.3643,2.78,3.793,95,0,109.7,13.56,3.54,147.6
"2009-05-02 01:42:30",850126,3.328,177.4,6.992,1.22,4.816,101.3634,2.778,3.893,95.1,0,109.7,13.56,3.54,139.4
"2009-05-02 01:43:00",850127,4.285,187.3,7.455,1.087,7.484,101.3617,2.774,4.05,95.3,0,109.7,13.56,3.54,149.3
"2009-05-02 01:43:30",850128,4.391,196,6.953,1.035,8.03,101.3625,2.776,4.045,95.3,0,109.7,13.56,3.54,158.0
"2009-05-02 01:44:00",850129,3.461,192.6,6.601,1.285,5.16,101.3645,2.781,3.963,95.2,0,109.7,13.56,3.54,154.6
"2009-05-02 01:44:30",850130,3.538,197.3,9.76,1.21,5.317,101.3671,2.787,3.957,95.2,0,109.7,13.56,3.55,159.3
"2009-05-02 01:45:00",850131,2.629,185.2,4.189,0.259,3.266,101.3739,2.805,3.821,95.1,0,109.7,13.56,3.57,147.2
"2009-05-02 01:45:30",850132,3.211,190.9,5.369,1.181,5.119,101.3727,2.802,3.917,95.2,0,109.7,13.56,3.56,152.9
"2009-05-02 01:46:00",850133,4.184,190.8,5.496,1.17,6.895,101.3725,2.801,4,95.3,0,109.7,13.57,3.56,152.8
"2009-05-02 01:46:30",850134,4.565,190.9,4.194,1.319,7.613,101.3722,2.8,4.124,95.4,0,109.7,13.57,3.56,152.9
"2009-05-02 01:47:00",850135,3.505,186.3,4.77,1.302,5.243,101.3719,2.8,3.967,95.3,0,109.7,13.56,3.56,148.3
"2009-05-02 01:47:30",850136,3.472,195,8.45,1.153,5.686,101.3736,2.804,4.075,95.4,0,109.7,13.57,3.57,157.0
"2009-05-02 01:48:00",850137,3.64,187.6,7.651,1.163,4.804,101.3741,2.806,3.868,95.2,0,109.7,13.56,3.57,149.6
"2009-05-02 01:48:30",850138,2.715,180.3,2.865,0.083,3.29,101.3758,2.81,3.905,95.2,0,109.7,13.59,3.57,142.3
"2009-05-02 01:49:00",850139,4.223,200.5,5.458,1.141,7.076,101.3775,2.814,4.009,95.4,0,109.7,13.57,3.58,162.5
"2009-05-02 01:49:30",850140,4.489,195.6,6.049,1.196,7.529,101.3806,2.822,4.03,95.4,0,109.7,13.57,3.58,157.6
"2009-05-02 01:50:00",850141,3.948,196.9,8.3,1.241,6.292,101.3801,2.821,3.992,95.4,0,109.7,13.57,3.58,158.9
"2009-05-02 01:50:30",850142,4.181,195.4,6.448,1.19,6.911,101.3798,2.82,4.101,95.5,0,109.7,13.57,3.58,157.4